Location: Lourdes
(43.1000°N, 0.0500°W)
Time: 05:20:41
(UTC+00:00)

Cosmos 1603 - Pass Details

Date: 30 November 2020
Orbit: 831 x 859 km, 71.0° (Epoch: 24 January)

Event Time Altitude Azimuth Distance (km) Brightness Sun altitude
Rises 17:57:46 0° 192° (SSW) 3,375 7.2 -16.2°
Reaches altitude 10° 18:00:13 10° 188° (S) 2,441 6.4 -16.6°
Maximum altitude 18:05:43 60° 110° (ESE) 950 3.7 -17.6°
Enters shadow 18:09:10 23° 38° (NE) 1,707 4.9 -18.2°
